User: anonymous   Login
Location: Makanda
(37.6176°N, 89.2090°W)
Time: 19:57:05
(UTC+00:00)
Language:

GEOS 3 Rocket - Orbit

View from above orbital plane
View from above orbital plane
View from above satellite
View from above satellite

Ground track
Ground track

The orbit data is extracted from the following two-line orbital elements,

1  7735U 75027B   19316.48970342 -.00000140  00000-0  16571-4 0  9990
2  7735 114.9739 102.8929 0029910  17.2494 342.9598 14.24593100315331
Epoch (UTC): 12 November 2019 11:45:10
Eccentricity: 0.0029910
inclination: 114.9739°
perigee height: 788 km
apogee height: 831 km
right ascension of ascending node: 102.8929°
argument of perigee: 17.2494°
revolutions per day: 14.24593100
mean anomaly at epoch: 342.9598°
orbit number at epoch: 31533

The dashed part of the orbit path shows where the satellite is in the earth's shadow,  

DLR